User: anonymous   Login
Location: Unspecified
(44.5899°N, 128.9834°E)
Time: 02:24:35
(UTC+08:00)
Language:

Resurs 01 Rocket - Orbit

View from above orbital plane
View from above orbital plane
View from above satellite
View from above satellite

Ground track
Ground track

The orbit data is extracted from the following two-line orbital elements,

1 23343U 94074B   17291.74505454  .00000013  00000-0  94004-5 0  9999
2 23343  98.1404 329.9742 0007788  45.3595  91.0336 14.76712921235068
Epoch (UTC): 18 October 2017 17:52:52
Eccentricity: 0.0007788
inclination: 98.1404°
perigee height: 634 km
apogee height: 645 km
right ascension of ascending node: 329.9742°
argument of perigee: 45.3595°
revolutions per day: 14.76712921
mean anomaly at epoch: 91.0336°
orbit number at epoch: 23506

The dashed part of the orbit path shows where the satellite is in the earth's shadow,  

DLR